Time,TemperatureF,DewpointF,PressureIn,WindDirection,WindDirectionDegrees,WindSpeedMPH,WindSpeedGustMPH,Humidity,HourlyPrecipIn,Conditions,Clouds,dailyrainin,SoftwareType,DateUTC
2013-04-27 00:03:00,52.0,44.0,30.33,ENE,60,0.0,1.0,73,0.00,,,0.00,,2013-04-27 04:03:00,
2013-04-27 00:13:00,52.0,44.0,30.33,ENE,60,0.0,1.0,73,0.00,,,0.00,,2013-04-27 04:13:00,
2013-04-27 00:23:00,52.0,44.0,30.33,ENE,60,0.0,2.0,73,0.00,,,0.00,,2013-04-27 04:23:00,
2013-04-27 00:33:00,52.0,43.0,30.34,ENE,60,0.0,2.0,70,0.00,,,0.00,,2013-04-27 04:33:00,
2013-04-27 00:43:00,52.0,43.0,30.34,ENE,60,0.0,2.0,70,0.00,,,0.00,,2013-04-27 04:43:00,
2013-04-27 00:52:00,52.0,43.0,30.34,ENE,60,0.0,1.0,71,0.00,,,0.00,,2013-04-27 04:52:00,
2013-04-27 01:02:00,52.0,43.0,30.34,ENE,60,0.0,1.0,70,0.00,,,0.00,,2013-04-27 05:02:00,
2013-04-27 01:12:00,52.0,43.0,30.34,ENE,60,0.0,1.0,70,0.00,,,0.00,,2013-04-27 05:12:00,
2013-04-27 01:22:00,52.0,41.0,30.34,ENE,60,0.0,1.0,67,0.00,,,0.00,,2013-04-27 05:22:00,
2013-04-27 01:32:00,51.0,41.0,30.34,ENE,60,0.0,2.0,68,0.00,,,0.00,,2013-04-27 05:32:00,
2013-04-27 01:42:00,51.0,41.0,30.34,ENE,60,0.0,2.0,68,0.00,,,0.00,,2013-04-27 05:42:00,
2013-04-27 01:52:00,51.0,40.0,30.34,ENE,60,0.0,1.0,67,0.00,,,0.00,,2013-04-27 05:52:00,
2013-04-27 02:02:00,51.0,41.0,30.34,ENE,60,0.0,1.0,68,0.00,,,0.00,,2013-04-27 06:02:00,
2013-04-27 02:12:00,51.0,41.0,30.34,ENE,60,0.0,1.0,68,0.00,,,0.00,,2013-04-27 06:12:00,
2013-04-27 02:22:00,51.0,40.0,30.33,ENE,60,0.0,1.0,67,0.00,,,0.00,,2013-04-27 06:22:00,
2013-04-27 02:32:00,51.0,40.0,30.33,ENE,60,0.0,1.0,66,0.00,,,0.00,,2013-04-27 06:32:00,
2013-04-27 02:42:00,51.0,40.0,30.33,ENE,60,0.0,1.0,66,0.00,,,0.00,,2013-04-27 06:42:00,
2013-04-27 02:52:00,51.0,40.0,30.33,ENE,60,0.0,0.0,66,0.00,,,0.00,,2013-04-27 06:52:00,
2013-04-27 03:02:00,51.0,41.0,30.32,ENE,60,0.0,0.0,68,0.00,,,0.00,,2013-04-27 07:02:00,
2013-04-27 03:11:00,51.0,41.0,30.32,ENE,60,0.0,0.0,68,0.00,,,0.00,,2013-04-27 07:11:00,
2013-04-27 03:21:00,51.0,40.0,30.32,ENE,60,0.0,1.0,67,0.00,,,0.00,,2013-04-27 07:21:00,
2013-04-27 03:32:00,51.0,41.0,30.31,ENE,60,0.0,1.0,69,0.00,,,0.00,,2013-04-27 07:32:00,
2013-04-27 03:42:00,51.0,41.0,30.31,ENE,60,0.0,1.0,69,0.00,,,0.00,,2013-04-27 07:42:00,
2013-04-27 03:52:00,51.0,41.0,30.30,ENE,60,0.0,2.0,69,0.00,,,0.00,,2013-04-27 07:52:00,
2013-04-27 04:02:00,51.0,41.0,30.29,ENE,60,0.0,2.0,69,0.00,,,0.00,,2013-04-27 08:02:00,
2013-04-27 04:11:00,51.0,41.0,30.29,ENE,60,0.0,2.0,69,0.00,,,0.00,,2013-04-27 08:11:00,
2013-04-27 04:21:00,51.0,41.0,30.29,ENE,60,0.0,2.0,68,0.00,,,0.00,,2013-04-27 08:21:00,
2013-04-27 04:33:00,51.0,42.0,30.30,ENE,60,0.0,0.0,70,0.00,,,0.00,,2013-04-27 08:33:00,
2013-04-27 04:42:00,51.0,42.0,30.30,ENE,60,0.0,0.0,70,0.00,,,0.00,,2013-04-27 08:42:00,
2013-04-27 04:51:00,51.0,41.0,30.30,ENE,60,0.0,0.0,69,0.00,,,0.00,,2013-04-27 08:51:00,
2013-04-27 05:01:00,51.0,42.0,30.29,ENE,60,0.0,1.0,72,0.00,,,0.00,,2013-04-27 09:01:00,
2013-04-27 05:11:00,51.0,42.0,30.29,ENE,60,0.0,1.0,72,0.00,,,0.00,,2013-04-27 09:11:00,
2013-04-27 05:21:00,50.0,41.0,30.30,ENE,60,0.0,3.0,71,0.00,,,0.00,,2013-04-27 09:21:00,
2013-04-27 05:33:00,50.0,42.0,30.30,ENE,60,0.0,1.0,74,0.00,,,0.00,,2013-04-27 09:33:00,
2013-04-27 05:42:00,50.0,42.0,30.30,ENE,60,0.0,1.0,74,0.00,,,0.00,,2013-04-27 09:42:00,
2013-04-27 05:53:00,50.0,43.0,30.30,ENE,60,0.0,2.0,77,0.00,,,0.00,,2013-04-27 09:53:00,
2013-04-27 06:03:00,50.0,44.0,30.30,ENE,60,0.0,1.0,79,0.00,,,0.00,,2013-04-27 10:03:00,
2013-04-27 06:12:00,50.0,44.0,30.30,ENE,60,0.0,1.0,79,0.00,,,0.00,,2013-04-27 10:12:00,
2013-04-27 06:22:00,49.0,43.0,30.29,ENE,60,0.0,0.0,80,0.00,,,0.00,,2013-04-27 10:22:00,
2013-04-27 06:33:00,49.0,43.0,30.29,ENE,60,0.0,1.0,81,0.00,,,0.00,,2013-04-27 10:33:00,
2013-04-27 06:42:00,49.0,43.0,30.29,ENE,60,0.0,1.0,81,0.00,,,0.00,,2013-04-27 10:42:00,
2013-04-27 06:52:00,49.0,44.0,30.29,ENE,60,0.0,2.0,83,0.00,,,0.00,,2013-04-27 10:52:00,
2013-04-27 07:02:00,49.0,44.0,30.31,ENE,60,0.0,1.0,82,0.00,,,0.00,,2013-04-27 11:02:00,
2013-04-27 07:12:00,49.0,44.0,30.31,ENE,60,0.0,0.0,83,0.00,,,0.00,,2013-04-27 11:12:00,
2013-04-27 07:22:00,49.0,44.0,30.31,ENE,60,0.0,0.0,83,0.00,,,0.00,,2013-04-27 11:22:00,
2013-04-27 07:32:00,49.0,44.0,30.30,ENE,60,0.0,0.0,83,0.00,,,0.00,,2013-04-27 11:32:00,
2013-04-27 07:42:00,49.0,44.0,30.30,ENE,60,0.0,0.0,83,0.00,,,0.00,,2013-04-27 11:42:00,
2013-04-27 07:52:00,49.0,44.0,30.30,ENE,60,0.0,1.0,84,0.00,,,0.00,,2013-04-27 11:52:00,
2013-04-27 08:01:00,50.0,45.0,30.31,ENE,60,0.0,0.0,83,0.00,,,0.00,,2013-04-27 12:01:00,
2013-04-27 08:11:00,50.0,45.0,30.31,ENE,60,0.0,0.0,83,0.00,,,0.00,,2013-04-27 12:11:00,
2013-04-27 08:22:00,50.0,45.0,30.30,ENE,60,0.0,0.0,84,0.00,,,0.00,,2013-04-27 12:22:00,
2013-04-27 08:32:00,50.0,45.0,30.31,WSW,240,0.0,1.0,83,0.00,,,0.00,,2013-04-27 12:32:00,
2013-04-27 08:42:00,50.0,45.0,30.31,WSW,240,0.0,1.0,83,0.00,,,0.00,,2013-04-27 12:42:00,
2013-04-27 08:52:00,51.0,46.0,30.31,WSW,240,0.0,0.0,82,0.00,,,0.00,,2013-04-27 12:52:00,
2013-04-27 09:02:00,51.0,45.0,30.31,WSW,240,0.0,2.0,81,0.00,,,0.00,,2013-04-27 13:02:00,
2013-04-27 09:12:00,51.0,45.0,30.31,WSW,240,0.0,2.0,81,0.00,,,0.00,,2013-04-27 13:12:00,
2013-04-27 09:22:00,51.0,46.0,30.30,WSW,240,0.0,1.0,82,0.00,,,0.00,,2013-04-27 13:22:00,
2013-04-27 09:32:00,51.0,45.0,30.30,WSW,240,0.0,1.0,80,0.00,,,0.00,,2013-04-27 13:32:00,
2013-04-27 09:42:00,51.0,45.0,30.30,WSW,240,0.0,1.0,80,0.00,,,0.00,,2013-04-27 13:42:00,
2013-04-27 09:52:00,52.0,46.0,30.30,WSW,240,0.0,1.0,79,0.00,,,0.00,,2013-04-27 13:52:00,
2013-04-27 10:02:00,52.0,45.0,30.30,WSW,239,0.0,1.0,78,0.00,,,0.00,,2013-04-27 14:02:00,
2013-04-27 10:11:00,52.0,45.0,30.30,WSW,239,0.0,1.0,78,0.00,,,0.00,,2013-04-27 14:11:00,
2013-04-27 10:21:00,52.0,45.0,30.30,WSW,240,0.0,1.0,77,0.00,,,0.00,,2013-04-27 14:21:00,
2013-04-27 10:32:00,53.0,45.0,30.30,WSW,240,0.0,1.0,74,0.00,,,0.00,,2013-04-27 14:32:00,
2013-04-27 10:42:00,53.0,45.0,30.30,WSW,240,0.0,1.0,74,0.00,,,0.00,,2013-04-27 14:42:00,
2013-04-27 10:52:00,53.0,43.0,30.30,WSW,240,0.0,1.0,70,0.00,,,0.00,,2013-04-27 14:52:00,
2013-04-27 11:01:00,54.0,44.0,30.29,North,1,1.0,3.0,69,0.00,,,0.00,,2013-04-27 15:01:00,
2013-04-27 11:12:00,54.0,44.0,30.29,North,1,1.0,3.0,69,0.00,,,0.00,,2013-04-27 15:12:00,
2013-04-27 11:22:00,55.0,44.0,30.29,NNE,24,1.0,3.0,66,0.00,,,0.00,,2013-04-27 15:22:00,
2013-04-27 11:33:00,56.0,43.0,30.29,ENE,62,2.0,6.0,61,0.00,,,0.00,,2013-04-27 15:33:00,
2013-04-27 11:43:00,56.0,43.0,30.29,ENE,62,2.0,6.0,61,0.00,,,0.00,,2013-04-27 15:43:00,
2013-04-27 11:52:00,56.0,43.0,30.29,ENE,69,1.0,4.0,61,0.00,,,0.00,,2013-04-27 15:52:00,
2013-04-27 12:03:00,56.0,44.0,30.30,ESE,123,2.0,3.0,63,0.00,,,0.00,,2013-04-27 16:03:00,
2013-04-27 12:13:00,56.0,44.0,30.30,ESE,123,2.0,3.0,63,0.00,,,0.00,,2013-04-27 16:13:00,
2013-04-27 12:22:00,56.0,43.0,30.29,WSW,251,0.0,6.0,62,0.00,,,0.00,,2013-04-27 16:22:00,
2013-04-27 12:33:00,56.0,41.0,30.30,North,0,0.0,3.0,58,0.00,,,0.00,,2013-04-27 16:33:00,
2013-04-27 12:42:00,56.0,41.0,30.30,North,0,0.0,3.0,58,0.00,,,0.00,,2013-04-27 16:42:00,
2013-04-27 12:52:00,55.0,41.0,30.30,NNE,33,1.0,3.0,58,0.00,,,0.00,,2013-04-27 16:52:00,
2013-04-27 13:02:00,55.0,43.0,30.30,NE,52,0.0,3.0,63,0.00,,,0.00,,2013-04-27 17:02:00,
2013-04-27 13:12:00,55.0,43.0,30.30,NE,52,0.0,3.0,63,0.00,,,0.00,,2013-04-27 17:12:00,
2013-04-27 13:22:00,55.0,43.0,30.30,NE,52,0.0,2.0,65,0.00,,,0.00,,2013-04-27 17:22:00,
2013-04-27 13:32:00,54.0,46.0,30.30,NE,52,0.0,0.0,75,0.00,,,0.00,,2013-04-27 17:32:00,
2013-04-27 13:42:00,54.0,46.0,30.30,NE,52,0.0,0.0,75,0.00,,,0.00,,2013-04-27 17:42:00,
2013-04-27 13:53:00,54.0,46.0,30.31,NE,52,0.0,1.0,75,0.01,,,0.01,,2013-04-27 17:53:00,
2013-04-27 14:02:00,53.0,47.0,30.31,NE,52,0.0,0.0,80,0.01,,,0.01,,2013-04-27 18:02:00,
2013-04-27 14:12:00,53.0,47.0,30.31,NE,52,0.0,0.0,80,0.01,,,0.01,,2013-04-27 18:12:00,
2013-04-27 14:22:00,53.0,48.0,30.30,NE,52,0.0,0.0,82,0.02,,,0.02,,2013-04-27 18:22:00,
2013-04-27 14:32:00,53.0,48.0,30.30,NE,52,0.0,0.0,83,0.04,,,0.04,,2013-04-27 18:32:00,
2013-04-27 14:42:00,53.0,48.0,30.30,NE,52,0.0,0.0,83,0.04,,,0.04,,2013-04-27 18:42:00,
2013-04-27 14:52:00,53.0,49.0,30.31,NE,52,0.0,1.0,87,0.05,,,0.05,,2013-04-27 18:52:00,
2013-04-27 15:02:00,52.0,48.0,30.30,NE,52,0.0,1.0,85,0.06,,,0.07,,2013-04-27 19:02:00,
2013-04-27 15:11:00,52.0,48.0,30.30,NE,52,0.0,1.0,85,0.06,,,0.07,,2013-04-27 19:11:00,
2013-04-27 15:21:00,51.0,46.0,30.30,NE,52,0.0,0.0,84,0.05,,,0.07,,2013-04-27 19:21:00,
2013-04-27 15:32:00,51.0,47.0,30.30,NE,52,0.0,0.0,86,0.09,,,0.13,,2013-04-27 19:32:00,
2013-04-27 15:42:00,51.0,47.0,30.30,NE,52,0.0,0.0,86,0.09,,,0.13,,2013-04-27 19:42:00,
2013-04-27 15:52:00,51.0,48.0,30.29,NE,52,0.0,1.0,88,0.10,,,0.15,,2013-04-27 19:52:00,
2013-04-27 16:02:00,51.0,48.0,30.28,NE,52,0.0,0.0,88,0.11,,,0.18,,2013-04-27 20:02:00,
2013-04-27 16:11:00,51.0,48.0,30.28,NE,52,0.0,0.0,88,0.11,,,0.18,,2013-04-27 20:11:00,
2013-04-27 16:21:00,51.0,48.0,30.28,NE,52,0.0,0.0,89,0.12,,,0.19,,2013-04-27 20:21:00,
2013-04-27 16:32:00,51.0,48.0,30.29,NE,52,0.0,0.0,90,0.08,,,0.21,,2013-04-27 20:32:00,
2013-04-27 16:42:00,51.0,48.0,30.29,NE,52,0.0,0.0,90,0.08,,,0.21,,2013-04-27 20:42:00,
2013-04-27 16:52:00,51.0,48.0,30.29,NE,52,0.0,0.0,90,0.08,,,0.23,,2013-04-27 20:52:00,
2013-04-27 17:02:00,51.0,48.0,30.27,NE,52,0.0,1.0,91,0.08,,,0.26,,2013-04-27 21:02:00,
2013-04-27 17:12:00,51.0,48.0,30.27,NE,52,0.0,1.0,91,0.08,,,0.26,,2013-04-27 21:12:00,
2013-04-27 17:21:00,51.0,48.0,30.25,NE,55,0.0,1.0,91,0.08,,,0.27,,2013-04-27 21:21:00,
2013-04-27 17:33:00,52.0,49.0,30.25,NE,55,0.0,1.0,91,0.06,,,0.27,,2013-04-27 21:33:00,
2013-04-27 17:43:00,52.0,49.0,30.25,NE,55,0.0,1.0,91,0.06,,,0.27,,2013-04-27 21:43:00,
2013-04-27 17:53:00,52.0,49.0,30.25,NE,55,0.0,0.0,91,0.05,,,0.28,,2013-04-27 21:53:00,
2013-04-27 18:03:00,52.0,49.0,30.25,NE,55,0.0,0.0,91,0.03,,,0.28,,2013-04-27 22:03:00,
2013-04-27 18:13:00,52.0,49.0,30.25,NE,55,0.0,0.0,91,0.03,,,0.28,,2013-04-27 22:13:00,
2013-04-27 18:23:00,52.0,49.0,30.26,NE,55,0.0,0.0,91,0.01,,,0.28,,2013-04-27 22:23:00,
2013-04-27 18:32:00,51.0,48.0,30.26,NE,55,0.0,0.0,91,0.03,,,0.30,,2013-04-27 22:32:00,
2013-04-27 18:42:00,51.0,48.0,30.26,NE,55,0.0,0.0,91,0.03,,,0.30,,2013-04-27 22:42:00,
2013-04-27 18:52:00,51.0,48.0,30.25,NE,55,0.0,1.0,91,0.03,,,0.31,,2013-04-27 22:52:00,
2013-04-27 19:02:00,51.0,48.0,30.25,NE,55,0.0,0.0,91,0.05,,,0.33,,2013-04-27 23:02:00,
2013-04-27 19:12:00,51.0,48.0,30.25,NE,55,0.0,0.0,91,0.05,,,0.33,,2013-04-27 23:12:00,
2013-04-27 19:22:00,51.0,48.0,30.25,NE,55,0.0,0.0,91,0.07,,,0.35,,2013-04-27 23:22:00,
2013-04-27 19:32:00,51.0,49.0,30.24,NE,55,0.0,0.0,92,0.10,,,0.39,,2013-04-27 23:32:00,
2013-04-27 19:42:00,51.0,49.0,30.24,NE,55,0.0,0.0,92,0.10,,,0.39,,2013-04-27 23:42:00,
2013-04-27 19:52:00,51.0,49.0,30.24,NE,55,0.0,1.0,92,0.10,,,0.41,,2013-04-27 23:52:00,
2013-04-27 20:01:00,51.0,49.0,30.24,NE,55,0.0,0.0,92,0.12,,,0.45,,2013-04-28 00:01:00,
2013-04-27 20:12:00,51.0,49.0,30.24,NE,55,0.0,0.0,92,0.12,,,0.45,,2013-04-28 00:12:00,
2013-04-27 20:21:00,51.0,49.0,30.24,NE,55,0.0,0.0,93,0.11,,,0.46,,2013-04-28 00:21:00,
2013-04-27 20:32:00,51.0,49.0,30.24,NE,55,0.0,0.0,92,0.10,,,0.49,,2013-04-28 00:32:00,
2013-04-27 20:43:00,51.0,49.0,30.24,NE,55,0.0,0.0,92,0.10,,,0.49,,2013-04-28 00:43:00,
2013-04-27 20:52:00,50.0,48.0,30.24,NE,55,0.0,0.0,92,0.09,,,0.50,,2013-04-28 00:52:00,
2013-04-27 21:02:00,50.0,48.0,30.24,NE,55,0.0,1.0,93,0.07,,,0.51,,2013-04-28 01:02:00,
2013-04-27 21:11:00,50.0,48.0,30.24,NE,55,0.0,1.0,93,0.07,,,0.51,,2013-04-28 01:11:00,
2013-04-27 21:22:00,50.0,48.0,30.23,NE,55,0.0,0.0,93,0.06,,,0.52,,2013-04-28 01:22:00,
2013-04-27 21:32:00,50.0,48.0,30.24,NE,55,0.0,1.0,93,0.04,,,0.53,,2013-04-28 01:32:00,
2013-04-27 21:42:00,50.0,48.0,30.24,NE,55,0.0,1.0,93,0.04,,,0.53,,2013-04-28 01:42:00,
2013-04-27 21:52:00,50.0,48.0,30.24,ENE,59,2.0,3.0,93,0.03,,,0.53,,2013-04-28 01:52:00,
2013-04-27 22:02:00,50.0,48.0,30.24,ENE,62,0.0,2.0,93,0.03,,,0.54,,2013-04-28 02:02:00,
2013-04-27 22:12:00,50.0,48.0,30.24,ENE,62,0.0,2.0,93,0.03,,,0.54,,2013-04-28 02:12:00,
2013-04-27 22:22:00,50.0,48.0,30.24,ENE,62,0.0,2.0,94,0.03,,,0.54,,2013-04-28 02:22:00,
2013-04-27 22:32:00,50.0,48.0,30.24,ENE,58,0.0,3.0,93,0.02,,,0.55,,2013-04-28 02:32:00,
2013-04-27 22:42:00,50.0,48.0,30.24,ENE,58,0.0,3.0,93,0.02,,,0.55,,2013-04-28 02:42:00,
2013-04-27 22:52:00,49.0,47.0,30.24,ENE,59,2.0,4.0,93,0.04,,,0.57,,2013-04-28 02:52:00,
2013-04-27 23:01:00,49.0,47.0,30.23,ENE,59,0.0,4.0,93,0.03,,,0.57,,2013-04-28 03:01:00,
2013-04-27 23:11:00,49.0,47.0,30.23,ENE,59,0.0,4.0,93,0.03,,,0.57,,2013-04-28 03:11:00,
2013-04-27 23:21:00,49.0,46.0,30.23,NE,49,0.0,4.0,91,0.03,,,0.57,,2013-04-28 03:21:00,
2013-04-27 23:33:00,49.0,47.0,30.22,NE,49,1.0,2.0,92,0.03,,,0.58,,2013-04-28 03:33:00,
2013-04-27 23:43:00,49.0,47.0,30.22,NE,49,1.0,2.0,92,0.03,,,0.58,,2013-04-28 03:43:00,
2013-04-27 23:53:00,49.0,47.0,30.23,NE,51,1.0,3.0,92,0.02,,,0.59,,2013-04-28 03:53:00,